This is the latest recevied weather packets stored in our database for station/object W7TJC. If no packets are shown the sender has not sent any weather packets the latest 10 day(s).
| Time | Temp. | Humidity | Pressure | Rain* | Wind** | Luminosity | Snow |
|---|---|---|---|---|---|---|---|
| 1778087554 | 11.11° C | 87% | 1021 hPa | 0 mm | - | 46 W/m² | - |
| 1778087251 | 11.11° C | 87% | 1021 hPa | 0 mm | - | 55 W/m² | - |
| 1778086948 | 11.11° C | 88% | 1021.2 hPa | 0 mm | - | 50 W/m² | - |
| 1778086646 | 11.11° C | 89% | 1021.2 hPa | 0 mm | - | 47 W/m² | - |
| 1778086343 | 11.11° C | 90% | 1021.2 hPa | 0 mm | - | 37 W/m² | - |
| 1778086040 | 11.11° C | 90% | 1021.3 hPa | 0 mm | - | 46 W/m² | - |
| 1778085737 | 11.11° C | 90% | 1021.2 hPa | 0 mm | - | 42 W/m² | - |
| 1778085434 | 11.11° C | 90% | 1021.2 hPa | 0 mm | - | 43 W/m² | - |
| 1778085128 | 11.11° C | 91% | 1021 hPa | 0 mm | - | 39 W/m² | - |
| 1778084825 | 11.11° C | 91% | 1020.9 hPa | 0 mm | - | 31 W/m² | - |
| 1778084523 | 11.11° C | 91% | 1020.7 hPa | 0 mm | - | 26 W/m² | - |
| 1778084220 | 11.11° C | 91% | 1020.8 hPa | 0 mm | - | 22 W/m² | - |
| 1778083916 | 11.11° C | 91% | 1020.6 hPa | 0 mm | - | 36 W/m² | - |
| 1778083614 | 11.11° C | 91% | 1020.7 hPa | 0 mm | - | 32 W/m² | - |
| 1778083311 | 11.11° C | 91% | 1020.5 hPa | 0 mm | - | 35 W/m² | - |
| 1778083009 | 11.11° C | 92% | 1020.5 hPa | 0 mm | - | 43 W/m² | - |
| 1778082706 | 11.11° C | 92% | 1020.4 hPa | 0 mm | - | 49 W/m² | - |
| 1778081568 | 10.56° C | 92% | 1020.9 hPa | 0 mm | - | 24 W/m² | - |
| 1778081265 | 10.56° C | 93% | 1020.8 hPa | 0 mm | - | 19 W/m² | - |
| 1778080962 | 10.56° C | 92% | 1020.9 hPa | 0 mm | - | 21 W/m² | - |
| 1778080661 | 10.56° C | 93% | 1020.7 hPa | 0 mm | - | 19 W/m² | - |
| 1778080357 | 10.56° C | 93% | 1020.8 hPa | 0 mm | - | 12 W/m² | - |
| 1778080054 | 10.56° C | 93% | 1020.8 hPa | 0 mm | - | 12 W/m² | - |
| 1778079751 | 10.56° C | 93% | 1020.9 hPa | 0 mm | - | 15 W/m² | - |
| 1778079448 | 10.56° C | 93% | 1020.6 hPa | 0 mm | - | 15 W/m² | - |
* Rain latest hour (hover to see other rain measurements)
** Current wind speed in m/s (hover to see current wind gust speed)